Regional Weather Roundup
Issued by NWS

Home | Current Version | Previous Version | Graphics & Text | Print | Product List | Glossary On
Versions: 1 2 3 4 5 6 7 8 9 10 11 12 13 14 15 16 17 18 19 20 21 22 23 24 25 26 27 28 29 30 31 32 33 34 35 36 37 38 39 40 41 42 43 44 45 46 47 48 49 50
000
ASUS43 KDTX 290510
RWRMI
MICHIGAN HOURLY REGIONAL WEATHER ROUNDUP
NATIONAL WEATHER SERVICE DETROIT/PONTIAC MI
100 AM EDT MON MAY 29 2017

NOTE: "FAIR" INDICATES FEW OR NO CLOUDS BELOW 12,000 FEET WITH NO
SIGNIFICANT WEATHER AND/OR OBSTRUCTION TO VISIBILITY.

MIZ047>049-052>055-059>063-066>070-074>076-081>083-290600-
SOUTHEAST LOWER MICHIGAN

CITY           SKY/WX    TMP DP  RH WIND       PRES   REMARKS
ADRIAN         MOCLDY    60  57  89 W3        29.75S
ALMA           CLEAR     59  53  81 SW3       29.70F
ANN ARBOR      CLOUDY    58  58 100 SW5       29.73R FOG
BAD AXE        CLOUDY    60  59  97 CALM      29.67F FOG
CARO           CLOUDY    61  60  96 CALM      29.68S
DETROIT CITY   CLOUDY    62  60  93 W3        29.70F
DETROIT        CLOUDY    61  61 100 SW6       29.72S
FLINT          CLEAR     61  55  81 W6        29.71R
GROSSE ILE     CLOUDY    61  60  97 CALM      29.70F
HILLSDALE      CLEAR     54  52  94 W3        29.74F
HOWELL         CLEAR     58  53  85 SW6       29.72S

CITY           SKY/WX    TMP DP  RH WIND       PRES   REMARKS
JACKSON        CLEAR     58  53  84 SW3       29.74S
LAMBERTVILLE   CLOUDY    63  60  91 W3        29.74R
LANSING        CLEAR     60  52  74 W5        29.72F
LAPEER         MOCLDY    63  61  94 W3        29.70R
MASON          CLEAR     58  54  85 CALM      29.73S
MONROE         CLOUDY    60  60  98 W3        29.71S FOG
MT. CLEMENS    CLOUDY    62  62 100 SW6       29.69S
PONTIAC        MOCLDY    60  58  92 W6        29.70S
PORT HOPE        N/A     56  55  97 SE3       29.65F
PORT HURON     LGT RAIN  61  59  94 CALM      29.69S
TRI CITIES     CLEAR     62  55  77 CALM      29.69F
MIDLAND        FAIR      56  54  94 CALM      29.68F
TROY           CLOUDY    61  59  92 SW6       29.72F
SAGINAW HB     CLEAR     59  54  82 CALM      29.69S
$$
MIZ043>046-050>051-056>058-064>065-071>073-077>080-290600-
SOUTHWEST LOWER MICHIGAN

CITY           SKY/WX    TMP DP  RH WIND       PRES   REMARKS
BATTLE CREEK   CLEAR     58  55  90 SW8       29.74F
BENTON HARBOR  CLEAR     56  52  86 CALM      29.74F
BIG RAPIDS     PTCLDY    58  52  81 W8        29.69F
COLDWATER      CLEAR     58  55  92 SW5       29.75S
FREMONT        FAIR      56  54  95 SW6       29.71F
HOLLAND        CLEAR     60  54  80 W8        29.73F
GRAND RAPIDS   CLEAR     59  56  89 SW7       29.72S
IONIA          FAIR      58  53  84 SW6       29.70F
KALAMAZOO      CLEAR     60  53  77 SW8       29.74F
LUDINGTON      CLEAR     54  51  89 W6        29.68F
MARSHALL       CLEAR     57  56  96 CALM      29.73F
MOUNT PLEASANT CLEAR     58  51  75 CALM      29.69S
MUSKEGON       CLEAR     55  53  93 SW3       29.71F
SOUTH HAVEN    CLEAR     63  55  75 SW7       29.74S
$$
MIZ016>042-290600-
NORTHERN LOWER MICHIGAN

CITY           SKY/WX    TMP DP  RH WIND       PRES   REMARKS
ALPENA         FOG       56  56 100 SE3       29.67F VSB 1/4
BEAVER ISLAND  PTCLDY    55  54  95 S3        29.63F
BELLAIRE       PTCLDY    55  53  94 CALM      29.66F
CADILLAC       CLEAR     56  53  89 SW6       29.68F
CHARLEVOIX     CLOUDY    56  56 100 SE3       29.67F
FRANKFORT      CLEAR     51  47  84 CALM      29.67F
GAYLORD        MOCLDY    56  52  86 VRB5      29.67F
GRAYLING       MOCLDY    51  50  98 CALM      29.68F
HARBOR SPRINGS CLOUDY    54  54 100 CALM      29.65F
HOUGHTON LAKE  PTCLDY    55  53  93 S5        29.68F
MANISTEE       CLEAR     55  48  77 SW6       29.67F
OSCODA         CLOUDY    53  51  95 W8        29.67F FOG
PELLSTON       PTCLDY    56  51  84 VRB3      29.65F
ROGERS CITY    FOG       53  53  98 SE3       29.66F VSB 1/2
TRAVERSE CITY  CLEAR     55  52  89 CALM      29.65F
$$
MIZ007>008-015-290600-
EASTERN UPPER MICHIGAN

CITY           SKY/WX    TMP DP  RH WIND       PRES   REMARKS
KINROSS        CLOUDY    52  52 100 S7        29.63F
MACKINAC ISLAN FOG       52  52 100 SW8       29.64F VSB 3/4
NEWBERRY       FOG       52  51  97 SW9       29.62F VSB 1
S. S. MARIE    FOG       55  53  93 E5        29.63F VSB 3/4
MUNISING         N/A     54  53  97 S7        29.62F
$$
MIZ004>006-011>014-085-290600-
CENTRAL UPPER MICHIGAN

CITY           SKY/WX    TMP DP  RH WIND       PRES   REMARKS
MANISTIQUE     FOG       49  46  90 SW7       29.63F VSB 1/4
ESCANABA       CLOUDY    52  52 100 CALM      29.65S FOG
SAWYER-GWINN   CLOUDY    52  52  99 SW8       29.64S FOG
$$
MIZ001>003-009>011-084-290600-
WESTERN UPPER MICHIGAN

CITY           SKY/WX    TMP DP  RH WIND       PRES   REMARKS
IRON MOUNTAIN  CLEAR     52  50  93 CALM      29.63F FOG
HOUGHTON       CLOUDY    52  48  86 W7        29.59F
COPPER HARBOR    N/A     50  48  93 CALM      29.59F
IRONWOOD       CLOUDY    53  50  89 SW6       29.63S
$$

ABBREVIATIONS USED IN REMARKS
   TC - TEMPERATURE IN CELSIUS
  WCI - WIND CHILL INDEX
   HX - HEAT INDEX
  VSB - VISIBILITY





USA.gov is the U.S. government's official web portal to all federal, state and local government web resources and services.